| time (UTC) | temp C | wind direction | speed KPH | gust KPH | rain 1hr cm | rain 24hr cm | rain mn cm | humidity % | barometer mb |
| 20260510163742 | 13 | 44 | 0.0 | 14.5 | 0.00 | 0.91 | 0.28 | 75 | 1016.4 |
| 20260510162243 | 13 | 45 | 9.7 | 16.1 | 0.00 | 0.91 | 0.28 | 80 | 1016.4 |
| 20260510160742 | 12 | 38 | 3.2 | 14.5 | 0.00 | 0.91 | 0.28 | 83 | 1016.4 |
| 20260510160642 | 12 | 38 | 3.2 | 14.5 | 0.00 | 0.91 | 0.28 | 83 | 1016.4 |
| 20260510155243 | 11 | 40 | 0.0 | 12.9 | 0.00 | 0.91 | 0.28 | 88 | 1016.4 |
| 20260510155143 | 11 | 45 | 1.6 | 11.3 | 0.00 | 0.91 | 0.28 | 88 | 1016.4 |
| 20260510152243 | 10 | 36 | 0.0 | 11.3 | 0.00 | 0.91 | 0.28 | 92 | 1015.9 |
| 20260510152150 | 10 | 36 | 0.0 | 11.3 | 0.00 | 0.91 | 0.28 | 92 | 1015.9 |
| 20260510150742 | 11 | 20 | 0.0 | 14.5 | 0.00 | 0.91 | 0.28 | 94 | 1015.8 |
| 20260510145242 | 10 | 38 | 4.8 | 9.7 | 0.00 | 0.91 | 0.28 | 94 | 1015.3 |
| 20260510143742 | 10 | 36 | 0.0 | 3.2 | 0.00 | 0.91 | 0.28 | 94 | 1015.4 |
| 20260510143731 | 10 | 18 | 0.0 | 3.2 | 0.00 | 0.91 | 0.28 | 94 | 1015.4 |
| 20260510142243 | 10 | 6 | 0.0 | 14.5 | 0.00 | 0.91 | 0.28 | 95 | 1015.3 |
| 20260510142140 | 10 | 6 | 0.0 | 14.5 | 0.00 | 0.91 | 0.28 | 95 | 1015.3 |
| 20260510140743 | 10 | 31 | 4.8 | 12.9 | 0.00 | 0.91 | 0.28 | 95 | 1015.2 |
| 20260510140644 | 10 | 31 | 4.8 | 12.9 | 0.00 | 0.91 | 0.28 | 95 | 1015.2 |
| 20260510135323 | 11 | 51 | 0.0 | 8.0 | 0.00 | 0.91 | 0.28 | 96 | 1014.8 |
| 20260510135244 | 11 | 25 | 1.6 | 6.4 | 0.00 | 0.91 | 0.28 | 96 | 1014.8 |
| 20260510135230 | 11 | 51 | 0.0 | 8.0 | 0.00 | 0.91 | 0.28 | 96 | 1014.8 |
| 20260510135141 | 11 | 51 | 0.0 | 8.0 | 0.00 | 0.91 | 0.28 | 96 | 1014.8 |
| 20260510133742 | 10 | 31 | 0.0 | 12.9 | 0.03 | 0.91 | 0.28 | 95 | 1014.7 |
| 20260510133644 | 10 | 31 | 0.0 | 12.9 | 0.03 | 0.91 | 0.28 | 95 | 1014.7 |
| 20260510132244 | 11 | 340 | 3.2 | 0.0 | 0.05 | 0.91 | 0.28 | 96 | 1014.7 |
| 20260510130906 | 10 | 350 | 0.0 | 3.2 | 0.05 | 0.91 | 0.28 | 96 | 1014.2 |
| 20260510130743 | 10 | 350 | 0.0 | 3.2 | 0.05 | 0.91 | 0.28 | 96 | 1014.2 |
| 20260510130643 | 10 | 350 | 0.0 | 3.2 | 0.05 | 0.91 | 0.28 | 96 | 1014.2 |
| 20260510125244 | 10 | 27 | 0.0 | 9.7 | 0.05 | 0.91 | 0.28 | 96 | 1014.2 |
| 20260510123743 | 10 | 5 | 0.0 | 0.0 | 0.03 | 0.89 | 0.25 | 96 | 1014.0 |
| 20260510122244 | 11 | 26 | 0.0 | 0.0 | 0.03 | 0.89 | 0.25 | 96 | 1013.9 |
| 20260510120906 | 11 | 335 | 0.0 | 0.0 | 0.00 | 0.94 | 0.23 | 96 | 1013.1 |
| 20260510120744 | 11 | 312 | 0.0 | 0.0 | 0.00 | 0.94 | 0.23 | 96 | 1013.1 |
| 20260510115243 | 11 | 325 | 0.0 | 0.0 | 0.00 | 0.94 | 0.23 | 96 | 1012.9 |
| 20260510115213 | 11 | 325 | 0.0 | 0.0 | 0.00 | 0.94 | 0.23 | 96 | 1012.9 |
| 20260510115140 | 11 | 325 | 0.0 | 0.0 | 0.00 | 0.94 | 0.23 | 96 | 1012.9 |
| 20260510112243 | 10 | 17 | 0.0 | 0.0 | 0.00 | 0.97 | 0.23 | 96 | 1012.2 |
| 20260510111017 | 10 | 17 | 0.0 | 0.0 | 0.00 | 0.97 | 0.23 | 96 | 1012.1 |
| 20260510110743 | 10 | 17 | 0.0 | 0.0 | 0.00 | 0.97 | 0.23 | 96 | 1012.1 |
| 20260510110643 | 10 | 17 | 0.0 | 0.0 | 0.00 | 0.97 | 0.23 | 96 | 1012.1 |
| 20260510105244 | 9 | 19 | 0.0 | 0.0 | 0.00 | 0.97 | 0.23 | 96 | 1011.6 |
| 20260510103744 | 9 | 19 | 0.0 | 0.0 | 0.00 | 0.99 | 0.23 | 96 | 1011.4 |
| 20260510102504 | 9 | 18 | 0.0 | 0.0 | 0.00 | 0.99 | 0.23 | 95 | 1011.1 |
| 20260510102243 | 9 | 18 | 0.0 | 0.0 | 0.00 | 0.99 | 0.23 | 95 | 1011.1 |
| 20260510102142 | 9 | 18 | 0.0 | 0.0 | 0.00 | 0.99 | 0.23 | 95 | 1011.1 |
| 20260510101006 | 10 | 18 | 0.0 | 0.0 | 0.00 | 1.04 | 0.23 | 95 | 1010.9 |
| 20260510100744 | 10 | 18 | 0.0 | 0.0 | 0.00 | 1.04 | 0.23 | 95 | 1010.9 |
| 20260510100643 | 10 | 18 | 0.0 | 0.0 | 0.00 | 1.04 | 0.23 | 95 | 1010.9 |
| 20260510095243 | 10 | 18 | 0.0 | 0.0 | 0.00 | 1.07 | 0.23 | 95 | 1010.8 |
| 20260510093742 | 10 | 18 | 0.0 | 0.0 | 0.00 | 1.07 | 0.23 | 95 | 1010.4 |
| 20260510092244 | 11 | 18 | 0.0 | 0.0 | 0.00 | 1.07 | 0.23 | 96 | 1010.1 |
| 20260510090742 | 11 | 325 | 0.0 | 0.0 | 0.00 | 1.07 | 0.23 | 96 | 1010.0 |
| 20260510085242 | 10 | 231 | 0.0 | 1.6 | 0.00 | 1.09 | 0.23 | 95 | 1009.8 |
| 20260510083742 | 10 | 230 | 0.0 | 0.0 | 0.00 | 1.09 | 0.23 | 95 | 1009.7 |
| 20260510082506 | 10 | 210 | 0.0 | 0.0 | 0.00 | 1.09 | 0.23 | 95 | 1009.9 |
| 20260510082243 | 10 | 210 | 0.0 | 0.0 | 0.00 | 1.09 | 0.23 | 95 | 1009.9 |
| 20260510082158 | 10 | 210 | 0.0 | 0.0 | 0.00 | 1.09 | 0.23 | 95 | 1009.9 |
| 20260510080742 | 10 | 210 | 0.0 | 0.0 | 0.00 | 1.09 | 0.23 | 95 | 1009.7 |
| 20260510075506 | 11 | 210 | 0.0 | 0.0 | 0.00 | 1.09 | 0.23 | 95 | 1009.4 |
| 20260510075242 | 11 | 210 | 0.0 | 0.0 | 0.00 | 1.09 | 0.23 | 95 | 1009.4 |
| 20260510075158 | 11 | 210 | 0.0 | 0.0 | 0.00 | 1.09 | 0.23 | 95 | 1009.4 |
| 20260510074008 | 11 | 210 | 0.0 | 0.0 | 0.03 | 1.09 | 0.23 | 95 | 1009.4 |
| 20260510073743 | 11 | 210 | 0.0 | 0.0 | 0.03 | 1.09 | 0.23 | 95 | 1009.4 |
| 20260510072505 | 11 | 210 | 0.0 | 0.0 | 0.05 | 1.09 | 0.23 | 95 | 1009.4 |
| 20260510072242 | 11 | 210 | 0.0 | 0.0 | 0.05 | 1.09 | 0.23 | 95 | 1009.4 |
| 20260510070742 | 11 | 210 | 0.0 | 0.0 | 0.08 | 1.09 | 0.23 | 95 | 1009.3 |
| 20260510065506 | 11 | 202 | 0.0 | 0.0 | 0.08 | 1.09 | 0.23 | 95 | 1009.4 |
| 20260510065243 | 11 | 202 | 0.0 | 0.0 | 0.08 | 1.09 | 0.23 | 95 | 1009.4 |
| 20260510065156 | 11 | 202 | 0.0 | 0.0 | 0.08 | 1.09 | 0.23 | 95 | 1009.4 |
| 20260510063744 | 12 | 202 | 0.0 | 1.6 | 0.05 | 1.07 | 0.20 | 95 | 1009.8 |
| 20260510062505 | 12 | 260 | 0.0 | 0.0 | 0.03 | 1.04 | 0.18 | 95 | 1010.5 |
| 20260510062242 | 12 | 260 | 0.0 | 0.0 | 0.03 | 1.04 | 0.18 | 95 | 1010.5 |
| 20260510062155 | 12 | 260 | 0.0 | 0.0 | 0.03 | 1.04 | 0.18 | 95 | 1010.5 |
| 20260510060742 | 11 | 63 | 0.0 | 0.0 | 0.00 | 1.02 | 0.15 | 95 | 1009.9 |
| 20260510055506 | 11 | 80 | 0.0 | 0.0 | 0.00 | 1.02 | 0.15 | 94 | 1009.8 |
| 20260510055243 | 11 | 80 | 0.0 | 0.0 | 0.00 | 1.02 | 0.15 | 94 | 1009.8 |
| 20260510053742 | 12 | 80 | 0.0 | 0.0 | 0.00 | 1.02 | 0.15 | 94 | 1009.9 |
| 20260510052244 | 12 | 80 | 0.0 | 3.2 | 0.03 | 1.02 | 0.15 | 95 | 1010.1 |
| 20260510052156 | 12 | 80 | 0.0 | 9.7 | 0.05 | 1.02 | 0.15 | 95 | 1010.1 |
| 20260510050743 | 12 | 25 | 0.0 | 0.0 | 0.15 | 1.02 | 0.15 | 94 | 1009.7 |
| 20260510045242 | 12 | 146 | 0.0 | 14.5 | 0.15 | 1.02 | 0.15 | 95 | 1009.7 |
| 20260510045158 | 12 | 146 | 0.0 | 14.5 | 0.15 | 1.02 | 0.15 | 95 | 1009.7 |
| 20260510043754 | 12 | 29 | 0.0 | 8.0 | 0.15 | 1.02 | 0.15 | 94 | 1009.7 |
| 20260510043743 | 12 | 29 | 0.0 | 8.0 | 0.15 | 1.02 | 0.15 | 94 | 1009.7 |
| 20260510042244 | 12 | 237 | 0.0 | 0.0 | 0.10 | 0.97 | 0.10 | 94 | 1009.3 |
| 20260510042157 | 12 | 237 | 0.0 | 0.0 | 0.10 | 0.97 | 0.10 | 94 | 1009.3 |
| 20260510040744 | 12 | 237 | 0.0 | 0.0 | 0.00 | 0.86 | 0.00 | 94 | 1009.9 |
| 20260510035242 | 12 | 237 | 0.0 | 0.0 | 0.00 | 0.86 | 0.86 | 94 | 1009.3 |
| 20260510035158 | 12 | 236 | 0.0 | 0.0 | 0.03 | 0.86 | 0.86 | 94 | 1009.3 |
| 20260510033744 | 12 | 255 | 0.0 | 0.0 | 0.03 | 0.86 | 0.86 | 93 | 1009.4 |
| 20260510033741 | 12 | 255 | 0.0 | 0.0 | 0.03 | 0.86 | 0.86 | 93 | 1009.4 |
| 20260510032243 | 12 | 338 | 0.0 | 0.0 | 0.25 | 0.86 | 0.86 | 92 | 1009.4 |
| 20260510032157 | 12 | 338 | 0.0 | 0.0 | 0.25 | 0.86 | 0.86 | 92 | 1009.4 |
| 20260510030743 | 12 | 340 | 0.0 | 0.0 | 0.56 | 0.86 | 0.86 | 92 | 1009.5 |
| 20260510025244 | 12 | 340 | 0.0 | 0.0 | 0.64 | 0.86 | 0.86 | 91 | 1009.8 |
| 20260510025157 | 12 | 340 | 0.0 | 0.0 | 0.61 | 0.84 | 0.84 | 91 | 1009.8 |
| 20260510023744 | 12 | 339 | 0.0 | 1.6 | 0.61 | 0.84 | 0.84 | 91 | 1010.2 |
| 20260510022243 | 13 | 339 | 0.0 | 16.1 | 0.38 | 0.64 | 0.61 | 89 | 1010.5 |
| 20260510022201 | 13 | 339 | 0.0 | 16.1 | 0.38 | 0.64 | 0.61 | 89 | 1010.5 |
| 20260510020744 | 13 | 315 | 6.4 | 37.0 | 0.08 | 0.33 | 0.30 | 85 | 1009.3 |
| 20260510015244 | 16 | 352 | 3.2 | 22.5 | 0.00 | 0.25 | 0.23 | 71 | 1008.9 |
| 20260510013742 | 16 | 223 | 4.8 | 12.9 | 0.00 | 0.28 | 0.23 | 69 | 1007.7 |
| 20260510012244 | 16 | 242 | 4.8 | 11.3 | 0.00 | 0.28 | 0.23 | 68 | 1007.2 |
| 20260510010744 | 16 | 232 | 0.0 | 14.5 | 0.00 | 0.30 | 0.23 | 67 | 1007.2 |
| 20260510010729 | 16 | 232 | 0.0 | 14.5 | 0.00 | 0.30 | 0.23 | 67 | 1007.2 |
| 20260510005243 | 16 | 232 | 0.0 | 4.8 | 0.00 | 0.30 | 0.23 | 66 | 1007.2 |
| 20260510005202 | 16 | 232 | 0.0 | 4.8 | 0.00 | 0.30 | 0.23 | 66 | 1007.2 |
| 20260510003744 | 17 | 233 | 0.0 | 11.3 | 0.00 | 0.30 | 0.23 | 65 | 1007.2 |
| 20260510002243 | 17 | 220 | 1.6 | 12.9 | 0.00 | 0.30 | 0.23 | 64 | 1007.2 |
| 20260510000744 | 17 | 246 | 0.0 | 22.5 | 0.00 | 0.30 | 0.23 | 62 | 1006.9 |
| 20260509235243 | 18 | 212 | 1.6 | 19.3 | 0.00 | 0.30 | 0.23 | 60 | 1006.7 |
| 20260509233743 | 18 | 215 | 3.2 | 12.9 | 0.00 | 0.30 | 0.23 | 60 | 1006.7 |
| 20260509232242 | 18 | 252 | 3.2 | 20.9 | 0.00 | 0.30 | 0.23 | 58 | 1006.7 |
| 20260509230743 | 19 | 206 | 8.0 | 20.9 | 0.00 | 0.30 | 0.23 | 58 | 1006.8 |
| 20260509225242 | 19 | 270 | 17.7 | 20.9 | 0.00 | 0.30 | 0.23 | 57 | 1006.8 |
| 20260509223743 | 19 | 243 | 4.8 | 29.0 | 0.00 | 0.30 | 0.23 | 59 | 1006.8 |
| 20260509222254 | 20 | 233 | 3.2 | 19.3 | 0.00 | 0.30 | 0.23 | 57 | 1006.7 |
| 20260509220754 | 20 | 238 | 6.4 | 19.3 | 0.00 | 0.30 | 0.23 | 56 | 1006.7 |
| 20260509215255 | 20 | 246 | 8.0 | 27.4 | 0.00 | 0.30 | 0.23 | 55 | 1006.8 |
| 20260509213755 | 20 | 214 | 3.2 | 19.3 | 0.00 | 0.30 | 0.23 | 59 | 1007.1 |
| 20260509212255 | 20 | 220 | 4.8 | 19.3 | 0.00 | 0.30 | 0.23 | 58 | 1007.1 |
| 20260509210755 | 19 | 216 | 17.7 | 27.4 | 0.00 | 0.30 | 0.23 | 60 | 1007.0 |
| 20260509205256 | 20 | 198 | 8.0 | 17.7 | 0.00 | 0.30 | 0.23 | 57 | 1007.3 |
| 20260509203755 | 19 | 187 | 1.6 | 27.4 | 0.00 | 0.30 | 0.23 | 63 | 1007.6 |
| 20260509202254 | 18 | 199 | 8.0 | 16.1 | 0.00 | 0.30 | 0.23 | 63 | 1007.5 |
| 20260509200756 | 18 | 194 | 16.1 | 29.0 | 0.00 | 0.30 | 0.23 | 65 | 1007.8 |
| 20260509195255 | 18 | 242 | 0.0 | 22.5 | 0.00 | 0.30 | 0.23 | 65 | 1008.0 |
| 20260509193756 | 18 | 265 | 11.3 | 29.0 | 0.00 | 0.30 | 0.23 | 66 | 1008.3 |
| 20260509192255 | 18 | 285 | 9.7 | 27.4 | 0.00 | 0.30 | 0.23 | 65 | 1008.4 |
| 20260509190756 | 17 | 243 | 6.4 | 30.6 | 0.00 | 0.30 | 0.23 | 72 | 1008.5 |
| 20260509185255 | 17 | 253 | 3.2 | 25.7 | 0.00 | 0.30 | 0.23 | 71 | 1008.5 |
| 20260509183756 | 16 | 210 | 6.4 | 16.1 | 0.00 | 0.30 | 0.23 | 74 | 1009.0 |
| 20260509182255 | 16 | 186 | 4.8 | 19.3 | 0.00 | 0.30 | 0.23 | 74 | 1009.0 |
| 20260509180755 | 16 | 229 | 16.1 | 24.1 | 0.00 | 0.30 | 0.23 | 73 | 1009.0 |
| 20260509175255 | 16 | 202 | 6.4 | 9.7 | 0.00 | 0.30 | 0.23 | 77 | 1009.1 |
| 20260509175205 | 16 | 275 | 11.3 | 14.5 | 0.00 | 0.30 | 0.23 | 78 | 1009.1 |
| 20260509173755 | 15 | 199 | 8.0 | 17.7 | 0.00 | 0.30 | 0.23 | 79 | 1009.1 |
| 20260509172255 | 15 | 254 | 8.0 | 16.1 | 0.00 | 0.30 | 0.23 | 81 | 1009.1 |
| 20260509170755 | 15 | 180 | 17.7 | 14.5 | 0.00 | 0.30 | 0.23 | 80 | 1009.0 |
| 20260509165256 | 14 | 227 | 4.8 | 16.1 | 0.00 | 0.30 | 0.23 | 82 | 1009.0 |